Theta_e
305 305 305 305 305 305 304 304 304 304 305 305 305 304 304 305 305 305 305 305 306 305 305 305 305 305 305 305 306 306 306 307 306 305 305 305 304 304 305 306 307 307 307 307 308 308 308 308 307 307 307 309 309 310 309 305 315 331 328 319 318 319 316 312 309 310 311 312 311 308 309 309 308 307 304 302 304 305 304 304 304 303 301 299 299 300 299 298
305 305 305 305 305 304 304 304 304 304 304 304 305 304 304 305 304 305 305 305 305 305 305 305 305 305 305 305 307 307 306 307 307 305 304 304 304 304 305 305 307 307 307 307 307 307 309 309 306 306 308 309 308 310 309 307 310 320 320 316 323 326 315 307 307 307 307 312 312 308 308 307 308 308 303 304 307 305 304 305 304 303 302 298 297 298 298 296
305 305 305 305 304 304 304 304 304 304 304 304 304 305 304 304 305 305 305 305 305 305 305 305 305 305 305 306 307 307 306 306 307 306 304 304 305 305 305 306 307 307 307 307 308 307 309 310 306 307 310 309 309 310 310 310 310 314 315 314 325 325 310 303 305 306 305 308 311 308 307 306 306 306 303 305 307 306 305 305 304 303 303 301 297 295 296 295
305 305 305 305 304 304 304 304 304 304 304 304 304 304 305 304 305 305 305 305 305 305 305 305 305 305 305 306 308 309 308 309 309 306 304 304 305 305 305 306 306 306 307 307 308 307 308 309 306 308 310 312 315 314 309 309 310 312 314 318 321 312 306 306 304 305 305 305 308 308 306 305 305 304 303 305 306 306 305 304 304 304 304 302 296 294 295 294
305 305 305 305 304 304 304 304 304 304 304 305 304 304 304 305 304 305 305 305 305 306 305 305 305 305 305 305 308 309 309 313 311 305 304 305 305 306 306 306 307 307 307 307 307 307 307 307 307 309 310 312 316 314 307 306 308 311 310 313 312 305 305 307 304 305 305 303 306 306 305 305 303 302 303 304 305 306 307 305 304 304 303 301 297 294 294 293
305 305 305 305 304 304 304 304 304 304 305 305 305 305 305 305 305 305 305 305 306 305 305 305 305 305 305 306 308 309 311 313 309 304 305 305 305 306 306 307 307 307 307 307 307 307 307 307 308 312 314 311 311 310 308 306 308 311 309 306 306 304 305 305 304 304 304 304 306 306 304 303 303 304 304 303 304 305 309 312 308 303 301 298 296 294 295 294
305 305 304 304 304 304 304 304 305 305 305 305 305 305 305 305 305 305 306 305 305 305 305 305 305 305 305 306 308 312 314 310 305 305 306 305 305 306 306 307 307 307 308 306 307 308 308 310 310 312 316 314 310 309 308 309 309 311 312 307 303 304 304 304 304 303 303 304 305 304 302 303 305 305 304 303 302 303 305 306 303 299 297 295 296 295 294 294
305 304 304 304 304 304 304 304 304 305 305 305 305 305 305 305 304 305 305 305 305 306 306 305 305 305 305 306 309 315 314 306 305 306 305 305 305 305 306 307 307 307 307 306 307 308 309 310 308 309 316 315 310 311 310 309 311 312 311 307 303 304 304 304 304 303 303 303 302 302 302 304 305 302 302 302 301 302 302 300 300 300 297 296 297 296 294 293
304 305 304 304 304 304 304 304 304 305 304 305 305 305 305 305 305 305 304 306 306 306 306 306 305 305 306 307 309 314 312 304 305 306 305 306 306 305 306 306 307 307 306 305 306 306 308 309 307 307 313 312 309 313 312 309 313 314 310 306 303 303 304 303 303 303 303 303 302 301 304 305 303 301 302 303 302 301 300 300 303 305 302 300 298 296 294 293
304 304 304 304 304 304 304 304 304 304 304 305 305 304 305 305 305 304 305 306 306 306 306 305 305 306 307 308 310 311 309 305 304 305 305 306 306 305 306 305 306 307 305 305 305 306 308 308 306 306 310 311 309 311 311 311 313 312 309 306 305 304 303 303 302 303 303 302 302 302 304 305 302 301 304 307 305 301 301 301 302 305 305 303 299 296 294 293
305 305 305 305 304 304 304 304 304 304 305 304 304 305 305 305 305 305 305 305 305 306 306 305 305 306 307 308 312 310 306 304 304 305 305 305 306 306 306 305 305 305 305 306 305 305 306 306 306 308 311 311 309 309 310 311 309 307 307 306 307 305 301 302 302 302 302 301 303 302 302 303 300 301 305 306 304 302 304 303 302 304 304 303 302 300 294 293
306 305 305 304 304 304 304 304 304 304 305 305 305 305 305 305 305 305 305 305 306 306 306 305 305 307 309 310 311 308 304 304 305 305 305 305 305 306 306 305 304 304 305 305 305 306 305 306 308 312 313 311 311 309 309 308 306 306 306 306 311 310 303 303 303 302 302 302 303 302 304 307 302 302 307 304 302 303 305 305 302 302 302 303 303 302 297 294
305 305 305 304 304 304 304 304 304 305 305 305 305 305 305 305 305 306 306 305 306 307 306 306 307 308 310 311 308 304 304 304 304 305 305 305 305 306 306 305 304 304 305 304 305 305 305 305 308 311 311 315 315 308 306 305 305 307 306 307 312 315 315 306 301 302 301 302 304 303 309 318 309 304 307 302 300 303 304 304 303 302 301 302 302 302 301 295
305 305 305 305 304 304 304 304 304 305 305 305 306 305 305 305 305 306 306 306 306 308 306 306 310 309 309 310 305 303 304 304 305 305 305 305 305 306 306 305 305 305 305 305 304 304 305 305 306 308 308 313 311 306 313 312 307 308 306 312 312 313 325 313 301 303 302 301 304 303 308 316 311 306 306 302 301 303 304 304 303 302 301 300 301 301 302 298
306 305 305 305 305 305 305 305 305 305 306 306 306 306 306 305 306 306 306 307 306 308 306 307 310 310 311 309 303 304 305 304 305 304 304 306 305 305 306 305 305 305 305 305 305 304 304 305 307 310 307 308 311 313 322 317 314 314 309 320 319 311 326 320 304 303 303 302 303 305 309 311 310 309 306 302 300 302 305 304 302 303 301 300 301 301 303 300
305 305 305 305 305 306 306 306 306 306 307 308 307 307 307 306 306 306 308 307 307 308 305 307 309 310 314 310 303 304 305 305 305 304 304 305 305 305 305 305 305 306 306 305 306 304 304 308 308 311 308 307 318 328 325 318 323 323 312 320 323 313 318 317 306 304 304 303 302 304 309 310 309 308 304 301 301 303 305 303 301 303 302 300 301 302 302 300
305 305 305 305 306 306 307 306 306 307 308 311 310 308 306 307 307 307 308 306 308 308 306 308 308 309 312 307 304 305 304 304 304 304 305 305 305 305 304 305 305 304 306 305 305 305 304 307 305 308 314 312 318 325 319 320 328 323 313 315 320 315 312 313 312 306 302 303 304 304 305 306 308 305 302 302 302 303 304 302 302 303 302 300 300 301 300 300
305 305 305 305 305 306 307 306 307 307 308 311 311 310 309 308 309 309 308 307 309 308 306 310 309 309 311 308 305 304 304 304 304 304 304 305 305 304 304 305 304 304 308 308 305 305 305 309 310 312 321 317 314 314 314 324 324 313 313 312 314 315 311 312 314 307 302 304 305 306 305 305 306 304 302 305 303 302 303 302 302 302 300 299 299 299 299 299
305 305 304 305 305 306 306 306 307 306 307 307 309 312 311 312 314 311 306 307 315 315 310 311 311 309 311 309 305 304 304 303 303 304 304 306 304 305 306 303 305 305 309 312 308 307 308 312 314 313 318 318 315 316 316 324 320 309 314 313 311 314 311 311 312 308 305 304 306 307 306 306 306 304 303 304 303 301 302 301 300 300 298 298 298 298 298 298
304 305 304 305 305 306 307 306 307 307 307 306 307 311 312 315 321 320 315 311 313 313 311 312 309 307 307 306 304 304 305 303 303 304 304 305 304 306 305 304 312 309 309 316 311 309 309 310 315 314 316 317 316 318 314 316 315 308 310 312 311 312 310 310 311 308 304 305 310 308 305 308 306 304 303 302 303 301 300 300 299 298 298 298 298 298 299 299
305 305 304 305 305 306 306 306 308 308 307 306 307 310 311 312 314 316 317 312 307 304 307 310 305 304 304 303 304 303 304 305 303 304 304 304 305 306 306 308 314 312 314 316 312 315 313 311 321 321 317 314 312 313 309 308 310 308 309 309 310 311 310 309 307 308 305 304 312 310 305 308 305 303 302 300 301 300 299 299 298 298 299 298 298 299 299 299
305 304 305 305 305 306 306 306 309 309 309 306 306 309 309 308 307 307 308 310 309 306 307 308 304 305 305 302 304 303 303 308 305 304 304 304 306 307 309 312 311 313 318 315 312 321 320 316 323 319 312 309 310 313 312 310 309 309 310 308 310 311 311 311 307 309 307 304 311 312 306 306 305 303 302 300 301 300 299 299 298 298 298 297 298 298 298 298
304 305 305 305 305 306 307 308 309 311 311 306 305 307 305 306 307 306 306 310 313 311 311 311 307 308 308 303 304 304 305 307 307 307 304 303 307 307 309 313 313 313 315 315 313 317 319 316 312 310 307 305 308 311 311 312 312 310 309 307 311 310 309 312 311 310 309 305 307 309 306 306 306 305 301 299 300 300 299 299 298 298 298 297 297 297 297 297
305 305 305 305 306 306 308 309 308 312 314 308 306 307 305 306 306 306 309 313 315 315 311 308 306 307 308 304 303 305 306 305 305 306 303 303 306 306 308 311 311 311 311 314 314 313 316 311 303 306 309 305 306 309 308 308 312 317 313 307 310 310 307 311 311 309 309 307 304 306 309 308 307 305 301 299 299 298 298 298 298 297 297 297 296 296 297 297
305 305 305 305 306 306 309 309 308 312 315 310 305 306 306 306 306 306 311 313 315 318 313 307 307 306 305 304 304 304 306 306 305 303 302 303 305 307 309 309 307 310 314 314 311 312 314 307 302 307 310 307 307 308 309 307 308 316 317 310 310 309 307 308 309 308 308 309 305 304 310 312 307 304 300 299 299 298 298 297 297 297 296 296 296 296 297 297
305 305 305 305 306 307 308 309 308 311 315 311 307 307 306 305 306 307 315 322 318 317 316 311 308 306 305 306 305 305 307 309 305 301 302 302 303 304 307 311 309 308 313 312 311 311 308 304 304 307 310 311 310 308 309 308 307 311 313 310 309 307 305 306 306 306 308 309 305 302 308 312 309 306 301 299 299 299 298 298 297 296 295 295 295 295 296 296
305 305 305 305 306 307 307 309 309 311 312 309 307 307 305 306 306 304 314 326 320 313 313 313 309 306 306 306 305 306 308 309 305 302 302 301 303 305 305 312 311 308 311 311 313 312 307 307 307 308 312 311 310 309 308 308 310 312 309 306 307 305 304 305 304 304 307 307 305 304 305 307 310 308 302 298 299 299 298 298 297 295 295 295 294 295 295 295
305 304 305 305 306 307 306 308 310 309 308 306 306 306 305 306 305 309 317 316 313 312 310 312 310 305 307 307 307 310 309 309 308 304 302 300 303 308 309 310 308 310 311 308 314 316 309 308 308 308 311 310 309 309 306 305 307 311 308 304 304 303 302 304 303 305 306 304 308 309 304 306 312 307 300 299 300 299 299 298 297 295 295 294 294 295 294 294
305 305 305 304 307 307 306 309 309 305 305 305 305 305 305 304 306 320 327 313 309 312 310 311 310 309 312 312 312 314 311 309 309 306 304 302 303 306 307 309 310 311 310 308 314 316 308 305 307 307 307 310 311 308 306 306 305 306 304 303 305 304 303 303 302 305 307 306 310 311 304 306 312 304 299 300 300 299 299 298 296 295 294 294 294 294 294 294
305 305 305 304 307 305 305 310 307 303 304 305 304 305 306 308 317 329 323 310 309 311 310 310 308 312 315 315 318 316 311 311 312 309 309 308 307 307 305 305 311 313 312 313 315 313 307 304 305 306 305 308 307 303 304 305 302 302 303 305 307 306 304 305 305 306 307 310 312 310 305 305 310 305 300 301 301 300 299 296 295 295 294 294 294 294 294 293
304 305 304 305 305 304 306 309 305 303 305 304 305 309 310 315 330 332 312 306 311 311 313 312 310 314 314 312 315 314 312 315 314 311 311 312 312 313 310 306 310 317 319 319 318 315 311 306 305 305 304 304 302 302 304 305 304 305 307 306 305 308 306 306 310 308 307 313 312 307 304 304 309 308 301 301 301 300 298 296 295 294 293 293 293 293 293 293
304 304 304 304 304 304 305 306 305 305 304 305 309 313 317 319 323 320 310 309 310 309 310 308 310 314 310 309 310 308 310 313 313 310 308 311 312 308 307 306 305 312 316 315 313 315 315 310 305 304 303 302 303 305 308 308 308 308 309 308 308 312 311 309 313 311 310 315 308 302 303 303 305 303 300 299 298 298 297 295 294 293 293 292 292 292 292 292
303 304 304 306 305 304 304 304 305 305 304 309 314 320 330 329 314 306 310 312 306 305 308 308 311 313 309 311 310 306 308 308 309 310 305 310 314 307 305 305 303 307 309 308 307 309 313 312 306 305 305 302 302 304 306 307 306 304 306 310 311 311 309 311 313 308 309 312 304 301 303 304 303 299 298 298 296 296 296 294 294 293 292 292 291 291 292 292
303 304 305 308 306 304 305 304 305 306 306 310 318 324 327 322 309 303 309 313 308 308 310 309 311 312 308 310 308 306 308 307 308 310 310 315 316 310 308 307 305 306 306 308 307 304 308 310 308 306 305 303 302 302 302 303 304 304 305 305 308 310 307 308 311 308 309 310 305 302 303 306 305 298 295 296 294 294 294 294 294 293 293 292 291 291 291 292
303 304 306 309 306 304 304 304 305 307 308 315 329 332 320 310 306 306 308 310 310 309 308 308 311 312 314 314 310 305 304 307 309 308 311 313 310 308 307 305 305 305 306 309 308 303 305 308 307 303 300 301 303 302 299 301 304 304 302 301 305 310 307 307 309 307 305 307 308 306 302 301 300 296 294 295 294 294 294 294 294 293 293 291 290 290 290 291
303 305 308 308 304 304 304 305 307 306 311 326 336 326 314 306 304 305 306 306 306 305 307 313 314 313 317 318 315 309 302 305 309 306 307 308 305 306 306 304 302 303 303 305 306 305 306 309 307 302 300 299 300 301 300 302 303 302 301 303 304 303 303 305 306 304 303 304 306 306 302 298 297 296 295 294 295 295 294 294 293 292 292 290 290 289 289 290
304 307 310 307 304 305 304 305 307 308 318 333 330 314 306 303 302 307 310 305 302 303 306 311 310 307 309 312 316 314 306 305 307 305 306 308 304 303 307 306 302 300 300 301 305 305 303 307 308 303 303 301 297 298 301 300 301 302 303 304 302 300 303 306 305 306 307 306 306 305 303 301 301 300 296 295 295 295 294 294 292 291 290 290 289 289 289 289
307 310 311 307 305 304 304 307 308 313 326 330 322 313 307 305 304 306 308 305 302 305 307 307 306 306 306 307 313 314 308 307 308 306 306 308 305 302 305 306 301 301 301 299 303 305 302 305 306 300 301 303 298 299 304 302 298 300 302 301 299 301 307 308 304 306 307 306 308 308 303 301 301 300 297 296 295 294 294 293 291 290 290 289 289 288 288 288
308 314 316 308 305 305 305 307 309 318 329 323 316 313 309 309 308 304 304 304 303 304 307 306 305 307 308 306 309 312 309 307 307 305 305 306 305 303 303 303 301 304 304 300 301 304 302 303 305 302 299 301 300 301 306 307 300 299 300 300 299 301 306 306 303 305 307 305 307 308 306 301 298 297 296 295 294 294 293 292 291 290 289 289 288 288 288 287
306 317 318 308 305 305 306 308 310 319 323 314 312 313 309 309 311 306 304 305 305 303 304 306 304 307 310 308 307 308 307 308 307 305 305 305 304 304 302 301 303 305 304 301 300 302 302 302 306 307 302 301 304 303 305 305 302 302 303 302 302 301 303 303 301 303 306 305 306 307 307 302 295 294 295 294 293 292 292 291 290 289 289 289 288 287 287 286
309 320 317 308 306 305 309 312 310 317 320 311 310 314 311 309 309 309 306 305 306 303 302 306 305 304 307 309 309 307 305 308 308 306 307 305 304 305 302 299 302 303 302 303 302 301 302 302 304 305 302 302 304 302 302 303 303 305 305 304 305 304 304 303 303 304 303 303 305 305 305 301 295 294 294 293 292 291 291 291 290 289 289 288 287 287 286 285
317 321 311 307 306 304 314 318 311 315 320 310 306 309 310 309 307 307 307 305 305 305 305 306 306 306 307 306 306 306 305 308 309 306 306 305 304 304 302 299 301 300 299 302 302 299 299 300 301 303 302 302 302 298 297 300 301 302 301 300 302 303 302 302 305 306 303 301 301 301 303 300 294 293 293 292 291 290 290 290 289 289 288 287 287 286 285 284
320 316 307 306 305 307 319 322 316 317 314 304 303 306 307 309 308 306 307 306 305 306 307 307 305 304 304 303 304 304 303 306 308 306 306 306 304 303 302 301 301 299 298 302 301 298 298 300 301 303 303 302 302 299 296 297 298 300 300 300 300 300 301 303 303 303 302 302 301 300 302 299 294 293 293 292 291 291 290 290 288 288 287 286 286 284 284 283
319 312 309 307 303 308 318 315 313 315 310 306 308 307 305 307 308 308 308 307 306 305 305 307 305 303 302 303 304 304 304 305 306 305 304 304 303 302 302 301 299 298 299 301 300 298 300 302 302 303 304 304 307 307 303 302 302 301 300 301 300 299 300 301 300 300 301 301 300 300 302 299 294 293 292 291 291 290 289 289 288 286 286 285 284 283 283 282
316 308 310 311 304 307 314 313 317 318 314 312 310 306 307 307 306 306 307 307 305 304 304 305 304 302 302 303 304 305 306 304 304 305 303 303 304 303 303 301 298 299 301 301 300 298 299 302 301 302 303 304 306 307 305 303 302 301 300 299 299 299 298 298 300 303 303 300 298 301 302 298 295 293 291 289 289 288 288 287 286 285 285 284 283 283 282 282
313 308 313 320 312 307 308 309 318 322 313 312 310 305 307 308 305 303 305 306 304 303 304 303 302 302 303 305 306 309 308 304 303 306 304 306 308 304 301 301 300 300 302 302 300 298 300 301 300 302 303 302 302 302 301 300 300 300 300 299 299 300 298 298 301 303 302 300 300 300 298 296 295 292 290 288 288 287 287 286 285 285 285 284 283 282 282 282
314 308 308 315 315 314 315 312 315 316 309 310 309 304 307 311 307 305 304 304 303 302 303 304 303 303 304 305 306 308 309 305 303 304 303 305 308 304 300 300 301 301 301 299 298 298 301 301 300 301 302 301 300 299 298 298 297 297 298 298 299 300 298 298 300 298 298 300 300 297 295 295 295 291 288 288 287 286 286 285 285 285 284 283 282 282 282 282
310 306 302 304 306 311 314 310 312 313 309 311 309 304 308 312 308 306 304 302 303 303 302 304 305 305 305 304 303 305 308 306 304 306 304 302 303 304 302 300 299 300 299 297 297 298 300 301 300 299 301 300 299 298 297 297 297 296 296 296 297 297 296 297 297 296 296 298 298 296 295 295 293 289 287 287 287 286 286 285 285 284 283 282 282 281 281 281
306 306 303 303 306 308 307 305 310 313 310 311 311 305 307 310 307 305 303 303 308 306 301 303 306 306 306 304 302 304 307 306 304 306 305 302 301 302 304 302 299 298 298 297 297 297 298 302 301 298 300 300 298 298 297 297 298 297 295 294 295 295 296 296 296 295 296 297 297 295 294 293 290 287 287 287 287 286 285 285 284 283 282 282 282 281 281 280
308 309 306 309 312 309 307 307 312 317 311 309 310 306 306 309 307 305 303 303 306 306 302 303 304 306 307 305 303 305 307 305 304 304 303 302 301 302 302 300 299 299 300 297 296 295 296 300 301 299 300 301 300 300 299 297 299 299 296 294 295 295 296 296 295 296 296 297 296 294 293 292 289 286 286 287 286 285 284 284 284 283 282 282 281 281 280 278
304 304 308 318 313 306 309 310 312 319 315 309 308 305 305 307 305 304 305 303 303 304 304 305 304 305 306 304 304 306 306 304 304 304 302 301 300 300 299 298 297 298 300 298 297 297 296 299 301 300 300 301 300 301 300 297 298 300 297 295 295 295 295 295 295 295 295 296 295 293 292 291 288 286 286 286 286 285 284 284 283 282 282 281 281 280 278 276
303 301 306 318 313 304 309 311 311 317 311 303 305 304 304 307 305 304 305 304 305 305 303 303 302 303 305 305 304 303 302 301 301 300 298 297 297 297 297 297 296 296 298 299 297 296 296 298 300 299 299 301 301 299 298 297 299 301 298 294 294 294 293 292 292 293 293 292 292 292 291 288 287 286 286 285 285 284 283 283 283 282 281 280 280 279 277 275
Wind_Speed
5 5 5 6 6 5 5 5 4 4 3 2 2 2 2 3 2 2 3 4 6 8 10 11 11 11 12 11 8 5 4 5 7 15 11 9 12 11 10 9 7 8 9 8 10 9 7 7 10 14 9 3 2 1 1 2 3 4 4 2 1 3 4 4 5 5 4 3 5 5 5 8 4 3 1 1 1 1 2 3 4 4 2 1 2 4 14 27
4 4 4 5 5 6 6 6 5 4 3 2 2 2 3 3 4 3 4 5 7 10 11 12 11 12 12 11 9 6 4 6 4 10 10 11 12 9 8 7 6 6 7 7 10 9 6 6 9 12 7 2 2 1 2 2 3 4 3 1 3 5 5 4 5 5 3 3 6 6 5 6 6 4 2 2 4 3 3 5 4 6 6 2 4 12 22 29
3 3 4 5 5 6 7 6 5 4 3 2 1 2 2 3 4 4 5 7 9 10 11 11 12 13 13 10 7 3 3 3 2 5 8 11 10 6 5 5 4 5 6 7 9 9 5 6 6 5 4 2 2 2 2 2 2 2 3 1 5 6 4 4 4 5 4 3 5 5 4 4 5 4 2 3 4 4 6 7 4 8 9 4 5 14 23 27
3 2 3 4 6 7 7 6 5 4 3 2 1 2 2 3 4 5 6 7 9 9 10 12 14 14 12 7 5 4 2 2 2 3 8 10 7 5 4 3 3 4 5 7 9 9 8 7 3 1 3 2 3 3 2 1 1 1 3 4 6 3 3 5 5 5 4 3 5 4 2 2 3 3 2 4 2 6 7 9 9 11 10 8 6 11 20 22
2 2 3 4 7 8 6 5 5 4 4 3 2 2 3 4 5 5 6 6 8 10 10 12 14 14 11 6 5 4 3 4 3 3 8 9 7 5 4 3 4 4 5 7 8 8 6 3 2 3 3 1 3 4 0 2 2 1 1 5 5 4 2 6 5 3 2 2 3 4 3 3 1 1 3 7 6 7 6 8 11 11 9 10 11 13 16 17
1 2 3 5 7 8 6 5 5 4 4 4 4 3 4 5 6 6 6 7 9 10 10 12 13 14 9 4 5 3 3 1 3 4 7 8 7 5 3 4 5 4 4 5 7 6 4 4 5 3 3 1 1 1 2 3 2 1 3 3 4 5 3 3 3 2 1 4 4 5 3 1 1 4 4 8 11 10 6 6 9 10 10 12 14 14 12 13
2 2 4 6 8 8 6 5 4 4 3 4 4 4 5 6 7 7 8 9 10 10 11 12 13 13 7 3 3 3 4 2 3 4 6 8 7 5 2 4 5 3 3 5 7 4 4 6 4 3 4 2 1 2 2 3 3 3 3 4 4 5 4 4 4 2 3 4 4 3 1 1 3 5 2 6 14 11 7 5 5 6 7 12 14 13 13 14
2 3 4 6 7 8 7 5 4 3 3 4 5 5 6 7 8 9 9 10 11 11 11 12 13 11 7 3 0 3 3 2 1 3 6 7 6 6 2 2 5 3 3 7 6 1 3 5 2 3 3 2 4 3 1 2 3 3 5 4 2 2 3 3 2 2 2 3 2 1 2 6 7 2 4 11 14 10 9 6 4 4 7 11 12 12 12 13
3 3 4 6 7 7 7 6 4 4 5 6 7 7 8 8 9 10 9 10 10 11 11 11 13 10 6 3 4 2 3 2 1 4 5 6 6 7 4 4 6 4 4 7 6 3 2 2 1 2 3 3 4 2 1 1 2 4 5 3 2 2 4 2 2 3 3 2 2 1 6 8 5 2 6 14 13 8 7 7 6 6 7 8 9 11 11 11
3 4 5 6 7 7 7 7 6 5 6 6 7 8 9 9 10 10 9 9 10 9 10 11 11 9 5 3 5 1 2 1 2 4 5 6 6 6 7 9 10 8 5 6 9 8 3 3 2 2 4 2 2 2 2 3 3 2 3 3 2 2 4 3 4 5 2 2 3 5 7 7 4 1 4 10 8 3 5 6 6 8 8 7 7 8 11 12
4 5 6 7 7 7 7 7 8 7 7 7 8 8 9 10 10 9 8 9 9 9 10 10 10 8 4 4 5 2 2 1 2 5 6 7 6 7 7 9 10 10 7 6 8 7 5 1 2 2 1 1 1 1 1 3 2 1 3 1 3 4 4 2 4 5 1 2 5 7 5 5 2 1 8 9 5 2 7 6 6 7 7 6 6 7 9 11
4 5 7 8 8 9 8 8 9 9 8 8 9 9 10 9 8 8 7 8 9 10 9 9 9 6 4 4 4 3 1 2 3 5 8 8 8 7 6 7 8 9 8 5 5 6 7 4 2 3 1 2 1 1 2 2 2 2 3 0 6 6 5 5 4 4 4 2 5 6 3 4 3 7 12 9 3 2 6 6 6 7 5 5 6 5 6 7
5 6 7 8 9 10 10 9 10 10 10 9 9 10 10 9 8 8 8 9 9 10 8 8 9 6 3 2 1 1 1 3 4 6 9 9 8 6 3 4 4 6 7 5 4 5 7 7 4 4 1 3 1 1 1 2 3 1 3 2 3 6 5 6 3 4 5 3 4 5 3 6 7 12 13 7 2 3 4 5 5 5 4 3 4 4 3 3
5 6 8 9 9 10 10 10 11 11 11 10 10 10 10 9 8 7 9 10 9 9 7 6 8 5 2 1 2 1 2 4 5 8 10 9 8 4 2 3 4 4 5 5 4 4 5 6 6 5 2 3 1 1 3 5 3 1 1 1 1 1 5 7 1 6 5 2 4 5 2 7 10 11 11 7 5 6 6 7 4 4 3 4 4 4 3 3
5 6 8 9 10 10 11 11 11 12 12 12 12 11 10 8 8 8 10 10 8 8 5 3 5 4 3 1 1 1 3 4 5 9 11 10 10 5 5 8 7 5 5 6 4 4 4 4 4 3 1 2 3 3 3 4 3 2 0 3 3 3 5 8 2 8 6 1 4 5 2 7 10 10 8 3 6 7 7 6 4 5 3 4 4 4 3 3
5 6 7 8 10 10 10 11 12 12 12 13 13 12 11 9 9 9 10 9 9 8 4 1 4 4 3 2 2 2 3 4 6 10 9 9 9 7 11 12 7 4 5 5 4 4 3 4 3 2 2 2 4 4 3 3 4 3 1 3 3 3 4 6 3 4 5 1 1 4 4 5 7 6 4 2 7 7 7 5 4 5 3 5 5 4 4 1
5 6 7 8 10 10 10 11 12 13 13 13 13 10 8 9 10 8 7 7 7 5 2 0 3 3 2 2 3 3 4 5 8 10 9 8 8 8 11 8 4 6 6 4 3 3 2 3 1 0 2 2 2 4 3 3 4 4 1 2 4 3 3 4 4 3 2 2 3 3 4 7 10 8 2 0 6 6 6 5 3 3 4 5 4 4 3 5
6 7 9 10 10 10 10 10 12 14 15 13 13 9 3 5 5 3 6 5 2 1 3 2 4 3 0 3 2 5 8 9 11 10 8 7 8 10 8 4 3 7 7 3 1 1 2 2 2 1 3 3 2 5 2 4 3 3 4 3 4 3 4 5 4 2 3 3 4 3 5 9 13 12 6 4 4 7 7 5 5 5 6 6 6 6 6 8
8 10 10 11 10 10 9 10 12 15 15 14 12 4 3 3 1 4 11 9 3 2 1 1 3 2 3 4 4 9 11 10 8 6 5 10 12 10 5 2 2 4 3 2 2 1 1 2 3 1 3 3 3 5 7 7 6 4 4 4 5 5 5 6 5 4 5 3 5 7 7 8 12 13 7 6 3 6 6 5 6 5 7 7 7 7 8 10
9 11 11 10 10 9 9 10 12 14 15 16 10 3 4 5 3 3 8 8 2 2 1 2 0 0 3 4 6 11 10 4 2 1 6 14 12 6 1 1 5 5 2 2 2 1 2 0 3 5 7 7 6 7 7 5 5 2 1 2 4 5 6 6 5 5 2 2 6 7 6 8 12 11 8 7 2 5 6 7 7 7 8 8 9 8 9 8
10 11 10 10 10 9 9 9 11 13 14 15 12 6 3 2 2 3 4 4 2 1 0 3 2 2 3 4 6 8 4 2 2 1 8 14 7 2 2 3 6 4 2 3 2 3 3 2 6 7 8 7 5 5 4 2 2 2 1 3 4 4 6 6 3 5 2 1 5 3 3 9 11 8 9 6 2 6 7 9 9 10 10 8 9 9 8 7
11 11 10 10 11 10 8 7 11 12 11 14 13 9 4 3 2 1 0 2 4 1 2 4 1 3 5 4 4 4 2 3 4 3 10 14 5 2 3 3 3 2 3 1 1 5 3 4 8 7 6 3 2 4 4 2 2 2 0 0 4 4 4 6 3 4 2 2 4 4 4 9 10 8 7 5 4 4 5 9 10 12 12 9 9 9 8 7
10 10 11 11 12 12 8 6 10 11 12 14 12 8 4 2 3 2 2 1 3 3 2 2 1 3 4 2 2 4 2 3 2 4 11 12 4 2 1 2 1 2 4 3 3 1 2 4 5 3 1 2 3 4 7 4 2 0 1 1 4 4 2 3 4 5 3 3 4 4 5 6 7 6 6 8 6 7 9 11 10 10 11 9 9 8 7 8
10 11 12 12 13 13 7 4 10 12 11 11 11 7 4 2 3 2 1 2 2 3 1 1 1 2 3 3 3 3 1 1 2 4 9 8 2 1 1 1 2 1 2 2 5 2 5 4 2 2 4 3 2 4 5 3 3 3 4 4 5 4 3 5 4 5 4 3 2 3 4 4 5 5 6 7 8 10 9 12 12 10 9 9 8 8 7 8
10 11 12 13 13 13 6 3 10 12 7 6 7 5 3 2 1 2 1 3 2 4 2 1 0 1 3 4 3 1 1 1 2 3 6 6 1 2 1 1 1 2 3 1 1 3 6 4 2 2 5 5 2 2 1 3 2 5 4 6 6 4 4 4 5 5 4 4 2 4 4 3 5 3 3 5 8 9 8 11 11 9 8 8 8 8 7 7
11 11 13 13 13 14 7 2 8 10 4 3 4 2 0 1 1 2 2 4 1 3 3 1 0 2 4 4 3 1 1 2 2 2 4 4 1 1 1 2 1 1 3 2 2 2 3 3 3 3 3 6 4 1 3 4 3 3 4 5 5 4 2 4 4 3 1 3 3 3 3 3 5 2 1 5 9 8 7 10 9 8 8 8 7 6 6 7
12 12 13 14 14 13 7 2 7 7 2 2 6 4 1 0 1 0 2 5 2 2 2 2 1 3 4 4 3 2 0 4 2 1 2 3 3 1 1 3 2 1 2 2 3 2 2 2 5 5 5 5 2 2 3 5 5 3 4 5 4 2 3 2 1 1 3 3 4 2 4 3 4 4 1 5 9 8 8 9 8 8 8 8 7 7 7 6
12 13 13 13 13 12 8 4 5 4 2 5 6 2 1 0 1 1 4 4 2 1 0 3 1 2 4 5 5 3 2 4 2 1 2 3 3 3 2 1 2 3 2 4 1 5 1 1 2 3 4 2 2 4 4 6 2 5 5 5 2 2 3 3 3 3 2 2 4 4 3 3 4 4 1 6 8 8 7 8 8 8 8 8 8 7 7 7
13 12 13 14 11 11 10 6 5 6 6 6 4 2 2 1 1 3 5 2 1 1 1 2 1 2 6 7 6 4 3 3 1 3 3 4 3 3 2 2 4 2 2 2 4 5 1 1 3 4 2 3 5 5 5 5 3 3 3 2 1 2 1 2 3 2 2 2 4 5 2 2 3 3 3 4 5 6 6 6 6 6 7 7 7 7 7 7
13 12 13 13 10 11 10 5 6 10 8 7 6 4 2 0 3 6 4 0 1 1 1 1 2 3 7 8 5 5 4 2 3 4 4 3 4 4 2 1 3 4 2 3 2 5 3 2 2 3 2 4 3 3 3 3 2 1 3 2 4 4 3 3 2 3 3 2 5 6 3 3 1 3 3 2 3 6 7 6 6 6 7 7 6 6 7 7
12 12 13 12 10 11 9 5 9 12 10 10 7 2 1 2 4 6 1 1 1 3 3 3 3 4 7 5 3 5 5 4 5 5 5 4 6 7 4 3 4 4 4 5 3 5 5 2 1 2 1 2 2 1 1 2 3 3 4 3 4 4 3 3 4 3 3 4 6 4 3 4 1 3 1 1 2 5 7 8 7 7 7 7 6 7 7 6
11 11 11 11 10 11 9 7 11 13 12 11 5 2 4 3 3 3 2 4 2 2 3 2 4 5 5 3 2 5 4 5 4 4 3 3 4 4 4 2 1 4 5 3 4 6 4 0 2 3 2 2 3 2 4 5 5 4 3 4 3 4 3 2 3 1 2 4 3 1 1 2 2 2 2 4 5 6 7 8 8 8 8 7 7 7 6 5
9 9 9 9 10 11 10 9 12 12 13 9 3 4 6 4 1 1 3 3 2 2 2 1 3 4 4 3 4 5 3 3 4 4 1 2 4 2 3 2 1 2 3 2 3 6 4 3 3 3 2 1 3 2 4 3 3 3 1 2 2 2 3 4 4 2 3 4 3 2 2 1 1 2 4 5 6 6 7 8 7 8 8 7 7 7 7 6
9 9 8 7 10 12 12 11 11 12 13 7 3 5 7 4 1 1 2 3 2 3 2 1 4 5 4 2 2 4 3 2 5 5 3 3 4 3 4 5 5 3 1 2 2 2 2 4 3 1 1 2 2 1 2 1 1 2 2 3 2 2 1 4 3 2 4 4 4 3 2 1 2 2 3 4 5 6 7 6 6 7 6 6 7 8 8 6
8 8 7 8 11 13 13 12 12 13 11 4 5 6 5 1 2 1 2 4 3 4 4 2 3 4 4 3 2 2 1 2 4 5 4 3 2 1 3 4 5 3 2 3 2 1 1 4 5 2 0 1 1 1 2 2 2 2 2 2 1 3 3 2 3 4 2 3 4 2 0 1 3 3 3 4 6 6 6 5 7 7 6 6 7 8 7 6
7 6 6 9 13 14 14 12 12 13 8 4 6 5 2 1 1 1 1 2 1 3 6 5 5 4 4 4 4 4 2 1 4 5 3 2 1 1 1 2 2 3 3 1 2 1 1 5 5 3 2 1 1 2 0 1 1 0 1 1 4 4 5 1 3 2 3 1 3 1 4 2 3 3 2 5 7 6 5 6 6 6 6 7 7 7 7 6
6 4 4 11 16 15 13 12 13 11 5 6 6 2 2 1 1 2 1 2 1 1 3 4 3 2 3 3 4 5 4 2 3 4 3 2 2 1 2 1 1 1 1 1 2 2 1 5 5 2 2 2 2 2 2 2 1 1 2 4 3 1 4 3 1 3 4 1 4 1 4 4 4 4 1 4 6 5 5 5 6 7 7 8 7 7 7 5
5 2 3 12 18 16 13 13 12 7 5 7 5 2 0 0 1 1 0 1 1 1 4 2 2 2 1 2 4 5 5 4 4 4 3 2 1 1 1 1 1 0 1 1 1 1 1 4 6 1 2 4 1 1 3 4 0 2 3 3 0 0 1 1 0 1 2 2 3 4 1 3 2 3 2 3 4 3 4 5 6 7 7 7 6 6 7 5
4 2 1 11 19 16 14 12 8 5 7 6 3 1 0 0 1 1 0 1 1 1 3 0 1 3 2 1 2 4 4 2 3 3 1 1 2 1 3 0 1 1 3 1 2 2 1 1 5 3 3 3 3 2 2 4 3 2 2 3 0 3 3 1 1 2 1 2 2 4 3 0 1 1 4 4 2 4 5 5 6 6 6 6 6 7 6 5
3 2 1 12 20 16 11 9 7 7 6 3 2 1 1 0 2 3 1 0 0 1 1 0 1 2 2 2 1 2 2 1 2 2 1 1 2 1 1 1 1 3 4 2 1 1 1 1 4 5 4 3 3 1 2 3 2 1 1 2 2 1 1 1 1 2 2 2 2 2 4 3 1 1 5 5 4 5 5 4 4 5 5 6 7 6 5 4
3 3 2 14 22 14 7 8 7 4 4 3 2 1 2 1 1 4 2 1 0 0 1 2 1 0 1 2 2 2 2 2 1 1 2 1 1 1 1 2 1 2 3 4 2 1 1 1 3 5 4 3 5 4 4 5 4 3 2 2 2 1 1 1 4 2 1 2 4 1 4 4 1 1 4 5 5 5 5 4 3 4 4 6 6 5 4 4
5 3 4 17 21 10 6 6 3 2 4 2 2 1 1 2 1 3 2 1 1 0 1 2 1 1 1 2 2 1 2 2 2 1 2 2 2 2 1 2 1 1 1 2 2 2 1 1 1 4 5 6 8 5 1 4 3 4 2 1 2 1 1 2 5 4 2 1 2 2 2 3 1 2 4 5 5 4 4 3 3 4 4 6 5 4 4 2
3 1 4 19 18 4 7 6 4 4 3 1 0 1 1 1 1 2 2 2 1 1 2 1 0 0 1 1 1 1 2 2 3 2 2 3 3 2 1 1 0 0 2 2 3 1 0 1 1 4 5 5 7 5 2 2 2 2 1 1 1 1 1 4 4 2 1 3 1 1 3 2 2 2 4 5 4 4 2 2 2 4 5 4 3 2 3 2
2 2 3 17 17 6 6 4 1 3 2 1 2 2 2 1 1 1 2 2 2 1 1 1 1 1 1 1 1 2 2 2 3 2 1 2 2 1 1 1 1 1 1 1 1 2 2 0 1 4 6 6 6 6 5 4 2 1 3 1 1 2 3 2 1 2 1 3 2 2 4 1 3 3 4 4 2 2 1 2 3 6 6 3 1 2 3 2
3 1 3 12 19 12 5 3 5 4 1 2 4 3 4 2 0 0 1 1 1 2 1 1 1 0 1 1 1 2 2 1 3 2 3 2 3 2 2 1 1 1 1 2 1 1 2 1 1 1 3 5 5 5 4 3 3 2 4 3 2 2 2 2 1 2 1 3 1 2 2 0 4 4 3 2 1 1 1 2 4 6 3 1 1 3 3 3
2 3 3 6 11 10 3 1 4 5 3 3 3 3 3 2 2 1 2 1 1 0 0 2 1 0 1 3 3 3 3 2 3 3 3 3 4 2 1 1 1 0 2 2 1 2 1 1 2 4 6 6 6 7 4 2 4 6 7 8 6 3 0 3 2 1 2 1 0 1 1 2 2 3 2 2 1 2 3 4 7 6 2 1 3 3 4 4
2 2 2 2 4 5 4 4 5 3 2 3 3 2 3 3 3 1 1 1 0 0 0 1 1 2 2 4 3 3 4 3 2 3 3 3 4 4 2 2 2 3 3 1 1 3 3 3 3 4 8 8 6 9 7 5 5 5 5 8 8 5 1 5 2 2 1 0 2 1 3 5 2 1 4 4 3 4 6 6 9 8 5 3 4 4 5 5
3 2 1 1 1 2 2 4 4 5 5 4 3 1 2 4 4 2 1 2 2 1 1 2 3 1 1 1 1 2 4 4 3 3 2 3 3 5 5 2 2 4 3 2 2 3 3 3 3 2 6 9 8 9 7 4 3 2 5 6 6 5 3 4 2 2 2 1 4 2 5 6 3 4 5 5 3 5 7 6 8 9 5 4 6 6 6 6
3 3 1 2 2 3 1 2 3 5 6 4 3 2 2 3 5 2 2 2 3 2 2 2 5 4 2 2 1 2 3 3 5 4 2 2 3 3 4 3 1 3 4 3 3 2 3 3 3 1 5 10 10 8 4 1 0 3 5 6 5 5 5 4 2 2 3 2 3 5 8 6 1 2 4 3 1 4 7 7 9 10 6 5 7 8 7 8
2 3 1 3 4 1 0 2 3 4 4 3 3 2 1 1 4 4 2 1 2 4 2 2 7 6 4 2 3 4 5 4 6 7 2 1 3 1 1 2 1 4 5 2 2 2 1 2 1 2 3 8 8 6 4 2 2 3 5 6 6 5 5 4 3 3 4 3 4 7 9 5 2 3 4 4 3 6 8 9 11 10 6 6 9 9 9 9
4 2 3 5 3 3 3 3 3 4 3 3 2 1 1 1 2 3 3 3 3 2 1 2 6 5 3 2 2 6 7 5 7 9 5 3 4 3 2 1 1 4 5 2 2 3 2 2 2 5 3 6 5 5 8 5 4 5 5 6 6 5 4 2 3 2 2 4 6 7 7 4 2 4 6 5 6 8 10 11 12 9 6 7 9 9 8 8
4 2 2 5 3 3 3 3 3 4 2 2 1 0 2 3 2 1 2 2 2 3 3 2 1 2 3 5 5 6 6 5 6 6 4 3 3 3 3 2 1 1 2 1 1 1 2 1 3 3 2 6 5 5 8 5 3 2 4 4 2 2 4 5 6 3 0 1 4 5 4 4 4 6 7 8 9 9 9 10 10 7 6 7 8 8 9 9
Wind_Direction
101 94 77 54 41 37 29 16 3 343 333 315 304 250 216 212 247 323 346 348 340 332 333 332 329 330 332 328 311 287 255 238 351 28 49 15 353 347 343 343 350 357 352 349 354 2 10 18 11 4 14 50 33 73 31 30 60 51 80 98 256 204 202 190 188 194 167 210 226 225 190 170 220 248 193 344 5 306 264 273 264 269 316 73 198 156 150 161
97 94 66 41 34 30 18 8 360 346 333 309 290 249 240 233 250 279 298 315 319 321 327 328 329 328 333 328 305 280 245 235 317 24 27 359 355 349 339 339 341 349 352 352 353 2 7 340 346 2 16 34 340 20 36 357 63 86 111 106 230 205 208 203 191 188 172 210 209 219 206 182 209 198 136 226 265 293 245 270 279 265 287 24 124 145 153 160
99 88 44 30 26 14 3 2 4 359 356 335 288 253 255 253 266 283 295 308 314 323 331 333 331 330 336 332 322 308 213 217 309 4 1 353 354 346 338 327 320 344 350 348 341 341 327 299 320 356 22 23 333 30 47 8 60 122 122 125 243 214 209 227 199 195 213 197 174 219 213 188 218 171 138 212 252 277 229 242 229 236 247 214 155 150 155 160
104 65 28 22 13 3 358 8 18 13 10 2 322 282 281 286 295 300 308 319 325 332 335 336 334 335 338 333 2 34 100 60 334 329 352 350 354 352 348 325 325 341 336 338 334 330 317 297 300 54 64 17 333 31 58 325 50 116 127 189 233 182 194 238 204 203 233 184 169 199 163 204 234 162 173 164 199 274 241 231 216 219 225 198 178 163 162 163
107 42 27 17 8 6 11 27 29 24 22 23 17 345 331 330 329 328 335 339 340 339 332 336 337 338 338 326 341 359 60 39 307 333 355 352 2 357 359 2 352 332 327 336 331 335 332 322 76 66 59 32 341 30 96 282 84 77 234 209 205 135 198 246 205 209 240 143 146 145 162 225 218 166 208 162 196 246 223 225 216 214 217 187 175 172 168 168
111 46 29 14 11 15 26 40 37 46 58 46 31 14 3 351 345 342 341 343 345 340 330 333 339 338 334 324 329 344 106 125 293 0 356 359 7 358 15 4 350 329 325 341 345 2 17 39 68 65 54 69 339 147 222 308 67 142 280 237 205 176 201 232 188 212 135 111 149 164 200 249 38 277 235 186 222 232 208 212 199 211 219 183 167 166 169 177
103 56 26 11 14 22 31 40 43 58 57 29 13 2 356 348 345 338 331 335 337 335 331 332 338 341 336 322 333 30 107 210 298 9 0 14 10 359 20 352 2 343 327 5 4 27 63 45 60 110 87 73 213 189 229 331 50 129 244 247 212 193 194 200 182 181 122 143 196 172 14 262 216 262 293 224 237 237 236 233 179 196 192 161 157 167 179 183
89 46 20 13 16 22 28 33 30 20 355 345 342 337 335 339 342 338 333 335 338 333 330 332 338 346 352 345 49 26 22 238 301 10 8 21 17 16 4 336 20 3 15 26 11 70 104 60 73 129 102 179 179 167 233 333 22 142 215 232 183 195 222 205 167 185 181 199 207 71 300 246 216 230 309 262 252 243 233 230 178 143 132 149 164 177 181 185
59 26 12 12 13 17 22 20 7 345 331 327 326 324 322 327 332 337 336 338 345 337 331 337 340 349 357 19 92 31 304 217 352 1 6 12 22 34 34 30 29 15 39 35 29 75 126 117 160 168 166 187 162 164 137 103 268 210 195 189 159 232 237 186 178 217 242 238 141 145 269 269 254 276 290 265 261 257 218 208 196 160 151 164 172 180 181 188
20 7 3 3 4 6 10 8 359 343 334 327 322 321 319 319 323 331 336 341 346 338 337 341 343 355 2 36 78 23 270 173 1 0 358 350 9 33 45 43 32 24 36 39 41 55 90 161 208 156 145 144 135 147 120 138 209 200 145 155 163 246 238 180 209 235 250 262 175 188 254 279 299 319 268 269 277 264 175 192 196 175 186 179 166 183 186 194
3 358 355 354 354 351 353 355 353 344 334 329 327 324 320 318 321 326 336 347 348 339 336 341 349 360 10 70 99 215 254 36 344 6 355 342 357 7 28 34 26 21 20 45 50 46 51 141 201 110 116 183 119 79 224 187 162 109 110 139 323 334 287 218 224 245 191 257 192 176 250 284 347 241 236 258 300 74 139 177 194 186 204 186 173 181 179 199
346 349 350 352 350 342 341 344 345 342 335 330 327 326 324 319 319 322 329 341 349 341 327 335 348 348 7 65 119 209 270 343 321 354 352 343 346 346 8 21 21 15 6 32 43 33 29 6 85 97 291 188 142 21 240 198 87 65 93 269 309 356 310 241 214 214 165 200 178 152 305 297 199 222 238 253 302 61 127 170 192 188 202 189 186 176 171 199
335 339 343 348 349 342 338 338 338 337 333 330 324 323 322 317 316 316 321 329 338 338 324 331 338 338 22 51 198 207 358 330 319 339 346 340 334 326 340 0 1 357 350 6 19 27 20 5 72 114 104 107 150 223 129 42 57 5 71 113 309 3 318 254 192 150 159 181 155 138 310 287 240 236 248 261 216 129 148 197 200 183 178 170 187 181 190 193
333 332 337 341 344 341 337 336 335 333 331 329 325 321 316 313 312 310 320 324 327 328 318 336 346 353 50 269 257 43 341 323 326 338 345 342 341 329 273 308 320 320 321 329 348 8 3 10 70 100 71 81 171 126 39 7 26 2 23 58 348 335 288 290 214 144 157 190 131 123 244 266 270 258 257 257 188 166 200 223 214 200 177 159 178 173 194 207
337 334 339 342 341 340 340 339 337 333 329 324 318 312 307 304 299 306 319 317 318 316 297 328 0 27 55 322 297 39 326 326 334 341 344 345 351 344 308 314 306 290 287 296 312 323 334 13 67 98 66 20 62 74 17 345 3 36 259 307 332 190 261 307 273 163 168 235 113 125 224 265 275 273 281 264 173 176 211 222 213 228 220 163 171 162 172 214
347 348 347 346 345 344 343 344 343 339 334 326 317 304 292 286 288 302 313 310 311 303 266 301 1 63 85 315 321 345 328 328 333 338 338 338 340 330 324 323 311 308 297 280 279 295 334 44 62 111 124 43 71 88 33 0 336 352 143 253 266 203 270 315 293 201 178 159 137 180 229 278 273 271 339 69 167 185 215 220 216 238 220 158 166 161 158 136
7 4 357 353 349 348 349 352 353 351 348 340 329 317 288 279 290 302 316 315 308 294 203 92 5 86 101 323 336 331 323 317 317 324 330 332 326 322 328 330 336 341 332 302 274 299 350 59 51 323 70 55 104 97 38 336 301 318 1 254 248 216 262 299 304 288 141 160 241 221 224 256 269 270 343 110 189 186 215 214 198 205 158 147 144 116 89 77
18 8 1 355 351 353 355 358 1 358 355 349 337 334 314 287 294 344 4 343 287 116 113 43 35 90 316 339 344 306 310 304 305 314 325 335 327 318 316 310 332 340 353 11 350 358 1 22 58 6 6 7 97 111 153 239 220 252 262 264 282 276 251 255 276 265 139 177 236 239 250 254 271 278 290 287 204 183 212 193 153 146 127 116 95 90 87 86
14 5 358 353 352 356 357 359 1 356 357 356 344 350 67 17 36 61 31 35 94 112 115 307 32 124 250 299 300 312 315 303 305 313 330 341 330 318 300 267 338 11 36 26 333 336 76 25 38 2 301 288 220 171 193 212 186 210 237 219 256 276 262 248 262 250 171 172 237 234 251 261 272 278 294 304 222 181 199 153 129 118 102 99 98 100 99 93
6 359 353 352 353 354 359 359 1 360 2 5 3 50 70 23 31 8 15 36 85 146 144 240 239 177 295 302 307 329 331 315 323 327 349 345 333 331 9 21 25 41 64 197 241 311 94 143 263 241 246 247 233 206 195 192 161 149 208 211 252 259 274 268 274 288 179 164 255 238 250 267 268 278 295 295 250 142 150 131 112 99 99 108 110 102 93 90
360 356 352 355 357 356 358 359 5 12 13 15 27 66 93 61 55 321 333 353 291 186 203 254 231 259 284 282 312 343 351 343 338 333 356 350 345 359 337 24 34 8 301 210 214 2 56 224 248 234 231 226 208 189 169 159 114 61 215 245 290 250 262 268 249 300 336 144 270 282 293 274 277 297 306 300 111 120 140 132 113 106 108 109 104 94 87 83
357 358 359 2 5 3 1 4 11 17 21 29 48 79 106 125 125 229 283 330 293 294 309 294 314 295 276 266 309 350 42 9 332 317 354 352 3 9 312 36 57 267 311 350 312 0 11 253 256 243 223 182 84 82 80 62 95 65 120 236 298 261 277 292 287 316 353 153 272 319 322 288 296 311 325 352 90 94 81 107 114 113 108 100 97 93 89 84
1 4 6 6 8 5 8 20 13 16 29 41 59 84 101 120 141 173 114 87 294 316 352 346 16 309 303 280 316 354 49 41 312 298 353 357 0 26 6 49 15 270 349 25 151 9 311 262 265 256 176 107 3 32 71 52 30 132 232 249 274 282 318 287 302 319 294 223 261 306 308 299 317 331 5 24 67 73 67 85 88 92 98 97 98 96 93 92
6 7 8 7 8 5 7 22 13 17 29 45 63 83 114 135 145 160 101 86 312 313 269 253 220 237 283 286 318 358 56 138 241 290 354 11 357 346 128 170 347 339 338 86 132 192 254 261 292 34 56 91 284 353 61 58 337 287 226 213 246 271 245 232 279 314 308 305 300 343 333 320 341 0 34 36 61 73 78 86 74 69 84 88 87 82 79 83
6 6 5 5 7 5 3 10 9 10 13 45 61 74 105 107 154 173 90 60 342 307 301 288 293 263 285 294 296 291 164 282 241 274 346 20 1 333 32 183 37 343 277 263 87 267 265 285 342 50 44 66 107 322 292 185 297 310 242 207 213 220 234 264 322 342 354 335 314 28 14 309 327 5 69 53 64 68 66 82 83 78 77 75 74 68 64 69
6 6 4 4 5 5 9 10 357 357 359 51 35 2 67 72 97 166 90 61 13 299 327 325 239 332 323 324 297 196 100 329 262 277 351 21 5 125 35 317 17 333 270 278 323 277 271 331 44 101 79 61 67 309 256 169 113 314 248 190 177 175 236 301 349 5 347 272 279 63 116 254 312 317 135 69 77 77 66 78 84 81 75 69 67 63 56 58
7 6 5 2 2 6 11 338 340 352 13 352 343 326 262 109 44 151 61 43 358 293 336 299 285 7 330 318 340 86 70 310 315 343 7 9 336 82 57 318 355 312 277 54 6 275 234 358 32 65 74 60 43 291 241 142 118 257 231 145 149 212 277 275 103 191 235 267 308 17 145 198 295 274 233 91 93 83 75 83 82 80 77 67 60 56 52 54
8 5 5 1 1 6 8 354 346 6 359 329 333 330 235 52 357 83 84 66 336 350 30 289 293 5 324 334 17 63 284 316 35 309 328 26 351 23 39 275 196 260 280 100 284 271 235 345 348 79 66 33 244 233 194 143 148 254 208 154 188 260 251 188 160 226 263 6 317 298 146 160 270 274 51 87 101 102 103 100 91 84 75 66 58 46 41 46
3 2 2 360 357 358 359 2 10 3 343 336 347 321 268 288 20 60 78 103 320 25 193 289 324 309 338 2 17 17 337 356 55 288 332 50 20 36 61 223 170 211 286 134 215 260 295 255 208 138 126 253 235 233 195 164 234 262 155 146 7 46 85 129 139 172 40 27 269 262 178 144 274 253 125 92 110 134 133 105 93 88 76 66 55 41 33 36
354 355 355 356 355 351 351 359 4 354 341 339 337 301 249 106 67 60 46 267 353 328 241 1 347 329 8 16 346 344 11 347 317 329 357 29 0 21 82 205 102 108 342 3 239 257 308 298 181 122 195 212 202 235 201 176 258 6 69 15 3 29 44 49 75 95 56 311 253 255 213 131 305 253 162 153 171 156 139 112 99 84 70 59 46 39 32 35
347 348 349 354 359 356 353 348 344 343 338 337 333 314 125 41 64 83 57 288 345 331 358 5 335 8 28 27 324 336 4 326 323 7 8 359 1 5 29 30 37 53 6 358 327 304 342 17 256 302 262 153 88 322 307 5 10 56 61 27 358 341 16 26 354 45 82 260 263 260 198 140 176 266 299 343 128 128 126 122 111 89 71 55 41 34 30 41
341 343 346 356 5 2 359 341 335 338 336 336 342 78 87 31 28 89 283 319 345 325 348 320 315 2 7 5 336 325 335 325 344 49 27 13 39 17 29 51 11 11 356 332 327 330 338 252 283 316 312 106 75 355 335 0 36 50 34 43 21 334 1 358 314 324 199 245 266 280 111 139 213 261 341 32 67 91 108 117 112 97 79 57 42 31 31 47
336 338 346 359 5 2 358 341 336 339 334 334 9 62 74 75 31 244 280 323 354 321 324 279 313 345 356 10 350 323 321 317 348 32 19 50 69 32 15 36 67 30 323 282 342 347 330 305 329 347 328 60 94 40 330 329 20 2 318 98 86 18 4 306 278 288 280 263 266 307 5 297 235 9 29 61 73 85 96 102 104 95 83 66 47 34 32 40
329 333 346 1 5 359 354 345 342 341 336 342 58 55 60 74 274 291 312 281 280 330 347 316 321 343 27 40 324 330 352 316 345 13 359 26 47 6 342 352 14 49 1 338 354 354 349 312 309 332 320 18 69 163 200 205 305 279 208 140 142 155 170 262 241 242 275 283 290 299 310 224 162 61 34 69 71 73 85 91 92 86 81 71 52 39 30 27
325 333 352 5 4 357 351 348 346 342 340 7 67 59 76 118 271 324 305 273 290 330 313 313 7 17 7 333 303 356 20 295 341 10 6 28 57 15 353 338 349 33 56 12 323 269 130 266 269 297 317 100 29 248 144 80 335 266 165 97 177 182 161 226 213 203 248 324 314 275 196 30 111 97 23 49 60 58 67 75 78 73 61 59 52 40 27 17
328 344 11 11 3 355 350 349 345 340 346 64 67 54 120 194 266 159 228 291 332 317 318 346 38 39 344 318 327 357 17 280 335 358 350 21 72 6 4 291 313 27 67 77 294 325 12 274 282 342 355 111 159 237 4 29 306 297 80 241 237 185 134 131 270 314 37 11 288 195 123 95 111 122 14 43 61 48 44 59 70 67 55 50 43 33 18 6
346 1 25 10 360 351 348 348 341 339 11 82 79 90 198 218 168 181 245 322 313 326 16 9 8 14 335 311 314 332 349 330 340 0 333 336 24 358 352 286 240 47 75 156 264 272 234 277 297 356 315 274 191 200 349 359 162 139 241 248 253 125 97 97 275 345 13 266 270 269 152 172 157 151 113 44 55 36 33 60 65 54 48 39 29 22 4 358
357 15 35 7 357 349 345 342 336 347 62 72 73 115 193 331 160 220 276 358 309 32 61 36 318 17 19 319 295 307 340 346 341 358 339 325 356 118 82 327 235 176 347 342 277 282 191 282 302 310 242 284 331 70 344 329 324 153 224 245 54 91 307 8 120 295 323 274 283 308 228 175 168 167 127 55 48 36 38 60 60 44 37 28 17 5 354 5
12 40 20 358 357 349 341 340 344 35 70 64 70 124 22 326 269 295 267 47 357 62 63 332 298 9 13 5 296 299 335 350 324 343 8 343 344 108 104 37 275 334 348 22 194 259 26 276 290 285 244 292 355 34 315 310 331 21 325 314 43 169 195 214 178 183 228 262 265 312 327 147 242 197 135 107 71 54 46 55 57 39 25 18 2 350 356 22
38 57 302 348 356 347 341 4 35 54 66 79 138 155 25 3 290 306 276 247 37 78 46 297 312 349 333 339 331 301 325 307 297 315 229 282 332 1 70 84 303 313 331 27 115 272 358 195 260 291 309 323 328 270 196 224 276 5 10 317 300 278 254 274 274 151 150 222 214 297 301 263 278 134 130 106 69 57 51 57 53 29 15 7 351 345 6 32
55 58 300 342 350 341 351 38 48 55 80 75 71 53 26 56 336 333 319 241 120 185 174 151 149 268 260 318 318 284 314 311 279 259 254 283 4 330 284 144 166 303 347 25 28 299 330 198 245 296 323 304 271 253 191 181 183 158 171 212 203 233 339 306 291 308 76 189 186 207 281 264 269 102 115 92 81 70 58 62 42 12 359 346 342 0 22 27
60 71 311 342 349 352 48 54 12 48 89 65 37 55 22 58 48 338 325 352 77 342 43 110 141 184 184 250 280 275 317 297 253 251 250 235 215 226 212 146 171 215 52 357 304 257 178 109 279 282 274 268 281 292 162 160 157 147 172 165 143 146 122 200 259 281 322 277 182 159 273 261 240 88 94 89 91 80 69 73 33 355 337 335 348 24 17 2
71 158 324 352 353 18 78 51 337 22 55 312 16 91 2 59 85 321 339 11 24 15 15 25 222 332 222 224 269 288 297 260 225 224 247 250 243 228 193 73 293 106 73 335 305 304 342 85 354 287 281 294 309 334 43 80 90 108 309 2 151 281 129 172 213 204 200 270 240 205 271 233 166 90 86 90 92 85 78 78 26 339 331 344 8 12 341 324
101 207 322 6 14 62 95 71 62 42 4 310 39 20 344 58 108 4 356 350 357 74 46 322 238 324 284 200 178 237 265 294 253 255 283 256 255 324 17 7 353 66 73 303 318 329 302 310 12 323 324 335 343 353 352 347 24 31 296 327 110 15 49 128 167 69 172 249 196 198 265 222 139 122 94 86 82 93 95 71 3 333 333 352 8 328 317 314
59 31 289 7 31 59 98 148 137 117 60 43 47 9 352 16 92 173 198 291 295 167 169 294 253 253 284 293 323 273 267 242 248 305 0 286 276 343 18 334 2 116 237 264 325 327 268 239 103 9 311 307 314 316 310 313 320 297 299 328 8 352 330 248 248 61 244 259 157 168 257 155 137 135 94 62 15 340 19 11 337 331 331 264 293 316 320 337
77 52 318 342 23 50 73 119 100 108 125 88 51 10 18 11 297 237 179 230 304 176 342 314 300 339 343 6 358 306 292 242 244 308 340 282 278 312 351 354 33 215 260 288 15 79 79 288 214 189 219 246 263 269 279 335 304 294 311 321 318 307 207 127 123 196 208 234 326 182 324 332 183 157 17 350 34 353 340 341 335 335 345 298 306 322 334 348
89 82 19 328 351 25 31 15 38 68 109 108 86 10 358 333 314 318 174 204 337 10 4 356 24 32 359 2 358 295 292 309 277 280 284 263 268 295 323 49 41 331 318 327 38 86 74 309 267 215 237 253 262 273 295 324 292 294 330 319 305 301 75 105 107 276 256 161 280 319 17 334 293 82 0 343 26 5 341 341 338 337 345 338 323 323 332 348
70 126 178 130 61 50 31 14 44 59 46 72 105 41 350 345 354 5 287 324 8 11 28 7 359 29 183 320 351 293 308 326 298 270 284 300 319 331 336 12 21 347 5 15 2 94 117 268 262 222 271 280 280 280 288 292 276 15 20 331 321 348 48 91 100 340 4 266 262 317 340 315 324 30 356 344 16 350 332 333 334 337 341 332 328 329 339 359
76 110 299 18 98 155 176 359 68 70 42 48 78 43 29 13 0 323 266 350 350 333 42 349 309 317 288 240 191 254 292 323 307 289 276 311 332 344 329 318 331 359 28 19 339 100 131 266 259 207 294 294 293 294 298 287 170 51 24 357 9 54 76 93 102 7 351 275 256 316 316 306 11 43 337 323 332 329 331 333 336 343 343 330 335 341 353 10
111 143 172 49 59 111 59 13 67 73 35 35 59 39 60 38 343 308 270 82 336 319 19 322 297 308 304 250 176 224 243 232 268 271 233 322 316 276 270 268 286 346 8 30 327 352 70 286 287 67 339 299 301 321 341 12 108 88 29 12 23 43 55 56 30 9 355 309 297 314 312 305 93 51 344 322 314 332 340 338 338 342 340 336 345 351 360 10
107 133 138 100 55 357 6 19 65 80 33 8 36 22 358 334 307 299 271 203 197 254 270 286 302 313 327 334 226 247 252 228 243 255 234 242 269 240 243 261 17 347 347 8 341 354 28 302 347 46 3 288 301 339 328 336 92 89 20 5 14 26 35 5 323 323 297 290 302 310 314 317 353 355 338 327 334 342 342 336 332 334 342 345 346 352 3 8
106 71 80 102 77 357 10 17 34 73 66 335 331 276 297 294 294 325 314 270 233 234 224 216 279 314 329 324 294 261 255 237 237 249 231 212 237 242 259 287 337 295 290 344 340 346 77 6 331 26 332 279 291 317 313 330 60 19 323 335 345 26 28 351 327 318 276 288 299 301 311 322 324 329 332 336 343 342 336 328 322 327 344 344 345 0 8 4